Content
SEND FEEDBACK

Daily
Averages
Monthly
Summary
United States of America

INARAJAN, GUAM


Home > North America > United States > Guam
Elevation: 280 feet     Latitude: 13 18N     Longitude: 144 44E

WEATHER
 
SELECT A DAY
Number of Records: 341,964;   Date Range: 1/1/95 - 7/26/14
 
SHARE

PRINT THIS DATA

[ ← Previous Day ]
WEATHER ALMANAC - OCTOBER 14, 2013
[ Next Day → ]
[ °C ]   °F
Weather ElementAverageHighLow
Temperature79.6 °F85.5 °F (10:58 am)75 °F (4:58 am)
Dewpoint75.4 °F78.1 °F (10:58 am)70 °F (2:58 pm)
Humidity87.4 %98 % (6:58 am)73 % (12:58 pm)
Barometer29.87 in29.91 in (8:58 am)29.82 in (2:58 pm)
Wind Speed7.7 mph13.8 mph (4:16 am)
Weather ElementAverage
Visibility9.6 mi
Wind DirectionSSW (205 °)

Weather ElementTotal
Precipitation0.01 in
Cooling Degree Days15.3 (Base 65)
Growing Degree Days30.3 (Base 50)
Averaged from 34 records on October 14, 2013
WEATHER CONDITIONS BREAKOUT
WIND DIRECTION BREAKOUT
WEATHER BY HOUR - OCTOBER 14, 2013
[ °C ]   °F
Local TimeTemperatureDewpointHumidityBarometerVisibilityWind DirectionWind SpeedGust SpeedPrecipitationEventsConditions
1:23 AM78.8 °F77.0 °F94 %29.87 in10.0 miSouth (170°)12.7 mphMostly Cloudy
1:38 AM78.8 °F77.0 °F94 %29.87 in10.0 miSouth (170°)11.5 mphMostly Cloudy
1:58 AM79.0 °F77.2 °F94 %29.84 in10.0 miSouth (180°)9.2 mphOvercast
2:58 AM79.3 °F77.2 °F93 %29.83 in10.0 miSouth (180°)12.7 mphOvercast
3:58 AM79.5 °F77.9 °F95 %29.86 in10.0 miSouth (190°)9.2 mphOvercast
4:16 AM78.8 °F73.4 °F83 %29.88 in10.0 miSSW (210°)13.8 mphOvercast
4:17 AM78.8 °F73.4 °F83 %29.88 in10.0 miSW (230°)13.8 mphRainLight Rain
4:27 AM75.2 °F73.4 °F94 %29.87 in5.0 miWest (260°)8.1 mphRainLight Rain
4:32 AM75.2 °F73.4 °F94 %29.87 in6.0 miWSW (250°)8.1 mphLight Drizzle
4:33 AM75.2 °F73.4 °F94 %29.87 in7.0 miWSW (240°)8.1 mphMostly Cloudy
4:38 AM75.2 °F73.4 °F94 %29.87 in10.0 miSW (230°)5.8 mphMostly Cloudy
4:58 AM75.0 °F73.8 °F96 %29.83 in10.0 miSSW (210°)5.8 mph0.01 inPartly Cloudy
5:58 AM76.5 °F75.0 °F95 %29.86 in10.0 miSSE (160°)13.8 mphMostly Cloudy
6:58 AM76.5 °F75.7 °F98 %29.86 in10.0 miSouth (170°)12.7 mphScattered Clouds
7:58 AM80.4 °F75.7 °F86 %29.88 in10.0 miSouth (180°)10.4 mphClear
8:58 AM81.9 °F76.5 °F84 %29.91 in10.0 miSouth (190°)10.4 mphClear
9:58 AM83.7 °F77.9 °F83 %29.91 in10.0 miSouth (170°)9.2 mphClear
10:58 AM85.5 °F78.1 °F78 %29.89 in10.0 miSouth (190°)12.7 mphClear
11:58 AM85.3 °F77.4 °F77 %29.86 in10.0 miSSW (200°)10.4 mphPartly Cloudy
12:58 PM85.5 °F75.9 °F73 %29.84 in10.0 miSouth (180°)10.4 mphClear
1:58 PM83.1 °F74.5 °F75 %29.83 in10.0 miSouth (180°)11.5 mphClear
2:58 PM78.6 °F70.0 °F75 %29.82 in10.0 miSouth (190°)8.1 mphClear
3:58 PM83.3 °F75.0 °F76 %29.83 in10.0 miSSW (200°)8.1 mphClear
4:58 PM80.8 °F75.7 °F85 %29.84 in10.0 miNorth (350°)3.5 mphMostly Cloudy
5:03 PM80.6 °F75.2 °F84 %29.87 in10.0 miNorth (350°)4.6 mphMostly Cloudy
5:13 PM80.6 °F75.2 °F84 %29.87 in10.0 miNW (320°)4.6 mphOvercast
5:23 PM80.6 °F75.2 °F84 %29.88 in10.0 miNorth (350°)2.3 mphScattered Clouds
5:58 PM81.1 °F74.1 °F79 %29.86 in10.0 miENE (70°)2.3 mphOvercast
6:58 PM79.5 °F75.2 °F87 %29.87 in10.0 miCalmClear
7:58 PM79.3 °F75.6 °F88 %29.89 in10.0 miSSE (160°)1.2 mphClear
8:58 PM78.3 °F76.1 °F93 %29.91 in10.0 miNW (310°)1.2 mphClear
9:58 PM78.6 °F76.6 °F94 %29.91 in10.0 miWSW (250°)3.5 mphClear
10:58 PM79.0 °F75.9 °F90 %29.91 in10.0 miCalmClear
11:58 PM77.9 °F76.1 °F94 %29.89 in10.0 miWest (280°)1.2 mphClear
Hourly data recorded from PGUA, located miles away from Inarajan, Guam







STORIES FROM OUR PARTNERS